STARLINK-3880 (52334 NORAD) Tracking and Keplerian Element Data

This shows tracking and keplerian element data for the satellite.

Feedback or suggestion? Click here.




ElementValue
Catalog52334
NameSTARLINK-3880
Epoch Orbit130
Epoch Day167.08334491
Epoch Year2022
RAAN207.3445
Inclination53.2174
Eccentricity0.0001741
Argument of Perigee37.6486
Mean Anonmoly51.866
Mean Motion15.31751779
Decay Rate-0.00716139
L11 52334U 22045D 22167.08334491 -.00716139 00000+0 -24959-1 0 9998
L22 52334 53.2174 207.3445 0001741 37.6486 51.8660 15.31751779 1309

Live tracking and technical data element details for STARLINK-3880 (NORAD 52334). STARLINK-3880 can be tracked NOW for your location showing map with azimuth and elevation plus other details from your city location.

Track the satellite on the map from your city or location and see movement details for azimuth, elevation, latitude, longitude, range, height, and movement on the map or in text.







IsCatalogInMostPopularTable: catalog: 52334, numindb: 6
Update: records affected: 1



GetName: 52334 STARLINK-3880

Hit Count: updated at: Sat, 25 Jun 2022 05:30:43 GMT